Temp
13 13 13 13 12 12 12 11 10 10 11 11 11 11 11 10 10 9 8 8 7 7 6 5 5 5 4 3 2 2 1 1 1 1 1 1 1 1 1 0 0 0 0
10 10 11 11 11 12 12 12 10 11 10 10 10 10 10 10 9 8 8 8 7 6 5 5 4 3 3 2 2 1 1 1 1 1 1 0 0 0 0 0 -0 -0 -0
12 12 11 11 11 12 11 11 11 12 11 10 9 10 9 9 8 8 7 7 6 5 4 4 3 2 2 1 0 -0 0 0 0 -0 -0 -0 -0 -0 -1 -1 -1 -1 -1
15 14 12 12 11 12 12 11 11 11 10 10 9 9 8 8 8 7 6 6 5 4 3 2 1 1 0 -1 -1 -1 -0 -0 -0 -1 -1 -1 -1 -1 -1 -2 -2 -2 -2
14 15 14 13 11 11 11 10 10 10 9 9 8 8 8 8 7 6 6 4 4 2 2 1 0 -0 -1 -1 -1 -1 -1 -1 -1 -1 -2 -2 -2 -2 -3 -4 -4 -4 -3
15 14 14 12 10 10 10 10 10 9 8 8 8 7 7 6 5 4 4 3 2 1 1 1 0 -0 -1 -1 -1 -1 -2 -2 -2 -2 -3 -3 -3 -4 -4 -6 -6 -6 -6
13 13 11 10 10 10 9 8 8 8 8 7 6 6 5 5 4 3 2 2 1 1 1 1 0 -0 -0 -1 -1 -1 -2 -2 -3 -3 -4 -4 -5 -5 -6 -6 -8 -8 -7
11 10 10 9 9 8 8 8 7 7 6 6 5 4 5 3 2 1 1 0 1 0 0 -0 -0 -1 -1 -1 -1 -1 -2 -2 -3 -3 -4 -5 -6 -6 -7 -7 -8 -8 -7
11 10 9 8 8 8 7 7 6 5 5 4 4 4 2 2 1 0 0 0 -0 -1 -1 -1 -1 -1 -2 -2 -2 -2 -3 -3 -4 -5 -5 -6 -6 -6 -7 -8 -8 -8 -8
10 10 9 8 8 7 6 6 5 4 4 3 2 1 1 1 -0 -1 -1 -1 -1 -1 -1 -2 -2 -2 -3 -3 -3 -4 -4 -4 -5 -5 -6 -6 -7 -6 -6 -8 -8 -8 -8
9 8 8 7 6 6 5 5 4 3 2 1 1 -0 -0 -1 -1 -1 -1 -1 -1 -1 -2 -2 -3 -4 -4 -4 -5 -5 -6 -6 -6 -6 -6 -7 -7 -8 -6 -7 -8 -8 -8
7 7 6 5 4 3 3 3 2 2 1 0 -0 -1 -1 -1 -1 -1 -1 -2 -2 -2 -3 -4 -4 -5 -5 -5 -6 -6 -6 -7 -7 -7 -7 -8 -8 -8 -7 -8 -8 -8 -8
6 5 5 4 3 2 2 2 1 1 1 0 -0 -1 -1 -1 -2 -3 -3 -3 -4 -4 -5 -5 -5 -6 -6 -7 -7 -7 -8 -8 -8 -8 -9 -9 -9 -8 -8 -7 -7 -7 -7
5 4 3 3 2 2 1 1 1 0 -0 -0 -1 -1 -2 -3 -3 -4 -4 -5 -5 -5 -6 -6 -6 -7 -7 -8 -8 -9 -9 -10 -10 -10 -10 -10 -10 -9 -8 -7 -7 -7 -7
4 3 2 2 1 1 0 -0 -0 -0 -1 -1 -2 -3 -3 -4 -4 -5 -5 -6 -6 -6 -7 -7 -8 -8 -8 -9 -9 -10 -10 -11 -11 -11 -11 -11 -10 -10 -9 -8 -7 -7 -7
3 2 1 1 0 0 -0 -1 -2 -2 -2 -3 -4 -4 -5 -5 -6 -6 -6 -7 -7 -7 -8 -8 -9 -9 -9 -10 -10 -11 -12 -13 -13 -13 -13 -12 -12 -11 -10 -9 -8 -8 -8
3 1 1 0 -0 -1 -1 -2 -2 -3 -4 -4 -5 -6 -6 -6 -6 -7 -7 -7 -8 -8 -9 -10 -10 -11 -11 -12 -12 -13 -14 -14 -14 -14 -14 -14 -13 -13 -12 -11 -10 -9 -8
1 0 -0 -1 -2 -3 -3 -3 -4 -5 -5 -5 -6 -7 -6 -7 -7 -8 -8 -9 -10 -10 -10 -11 -12 -12 -13 -13 -14 -15 -15 -14 -14 -15 -15 -15 -14 -14 -13 -12 -12 -11 -10
-0 -2 -3 -4 -5 -5 -5 -5 -6 -4 -7 -8 -9 -9 -9 -9 -9 -9 -10 -11 -12 -12 -12 -13 -13 -14 -14 -14 -15 -15 -15 -15 -16 -16 -16 -15 -15 -15 -14 -14 -13 -12 -11
-5 -5 -5 -6 -7 -6 -7 -7 -8 -8 -8 -9 -10 -11 -11 -11 -11 -12 -12 -13 -13 -14 -14 -15 -15 -15 -15 -16 -16 -16 -16 -16 -16 -17 -17 -16 -16 -16 -15 -14 -14 -13 -12
-5 -6 -7 -7 -6 -8 -8 -8 -9 -10 -10 -11 -11 -11 -12 -12 -13 -13 -14 -14 -15 -15 -15 -16 -16 -16 -17 -17 -17 -17 -17 -17 -17 -17 -17 -17 -17 -16 -16 -15 -14 -14 -13
-7 -7 -8 -8 -8 -9 -9 -10 -10 -11 -12 -12 -13 -13 -13 -14 -14 -15 -15 -16 -16 -17 -17 -17 -18 -18 -18 -18 -18 -18 -18 -18 -18 -18 -18 -18 -18 -17 -16 -16 -15 -14 -13
-8 -8 -9 -9 -10 -11 -11 -12 -12 -13 -13 -14 -14 -14 -14 -15 -16 -16 -17 -17 -17 -18 -18 -19 -19 -19 -18 -18 -18 -18 -19 -19 -19 -19 -19 -18 -18 -17 -17 -16 -15 -14 -14
-10 -10 -11 -11 -12 -13 -13 -14 -14 -15 -15 -15 -16 -16 -16 -17 -17 -17 -18 -18 -19 -19 -19 -20 -20 -19 -19 -18 -18 -19 -19 -19 -19 -19 -19 -19 -18 -17 -16 -16 -15 -15 -14
-11 -12 -13 -14 -14 -15 -15 -16 -16 -16 -17 -17 -17 -17 -18 -18 -18 -19 -19 -20 -20 -21 -21 -21 -20 -19 -19 -19 -19 -19 -19 -19 -19 -19 -19 -19 -18 -17 -16 -16 -15 -14 -14
-14 -14 -15 -15 -16 -16 -17 -17 -17 -18 -18 -18 -19 -19 -19 -20 -20 -21 -21 -21 -22 -22 -21 -20 -20 -20 -20 -19 -19 -19 -19 -19 -19 -19 -19 -18 -18 -17 -16 -15 -15 -14 -14
Height
1471 1475 1485 1488 1490 1493 1496 1497 1497 1492 1498 1496 1500 1504 1506 1508 1509 1510 1512 1515 1516 1517 1519 1520 1521 1521 1522 1524 1524 1525 1525 1525 1520 1519 1519 1520 1519 1519 1519 1516 1514 1510 1507
1474 1481 1481 1485 1488 1489 1490 1486 1486 1485 1492 1494 1494 1497 1500 1502 1504 1505 1507 1509 1510 1513 1514 1515 1517 1516 1518 1518 1519 1520 1520 1520 1518 1513 1514 1512 1511 1510 1508 1506 1503 1501 1498
1464 1465 1472 1476 1478 1481 1480 1481 1485 1483 1484 1489 1490 1490 1494 1497 1499 1500 1502 1505 1507 1509 1510 1511 1512 1512 1513 1514 1515 1515 1515 1514 1512 1508 1503 1503 1501 1501 1498 1496 1493 1491 1488
1453 1456 1459 1461 1465 1466 1472 1474 1476 1477 1479 1483 1486 1487 1490 1492 1494 1495 1496 1500 1503 1504 1506 1508 1508 1508 1509 1508 1508 1507 1506 1506 1504 1500 1496 1493 1491 1490 1488 1485 1480 1480 1477
1446 1448 1449 1452 1455 1459 1462 1466 1469 1472 1476 1479 1481 1482 1485 1487 1489 1490 1492 1495 1498 1500 1502 1503 1504 1502 1502 1502 1503 1502 1501 1499 1497 1493 1489 1486 1483 1480 1478 1475 1471 1468 1464
1438 1441 1443 1446 1450 1454 1456 1461 1465 1468 1471 1473 1476 1478 1480 1482 1484 1486 1488 1491 1494 1497 1497 1497 1497 1497 1497 1497 1496 1495 1495 1492 1489 1486 1482 1478 1473 1470 1466 1463 1460 1457 1451
1432 1435 1439 1442 1446 1450 1453 1457 1460 1464 1466 1468 1471 1473 1476 1478 1479 1482 1485 1488 1490 1491 1491 1492 1492 1492 1491 1490 1490 1489 1486 1485 1481 1476 1472 1470 1463 1462 1459 1453 1450 1447 1442
1428 1432 1436 1441 1443 1445 1449 1452 1455 1458 1460 1463 1466 1470 1470 1472 1476 1479 1481 1483 1485 1485 1486 1486 1486 1485 1485 1483 1482 1481 1478 1476 1473 1470 1465 1461 1458 1455 1452 1447 1442 1436 1431
1423 1427 1432 1436 1438 1440 1443 1446 1449 1453 1456 1460 1463 1465 1467 1470 1473 1475 1478 1479 1480 1480 1480 1480 1480 1480 1479 1476 1474 1471 1470 1468 1463 1460 1456 1453 1451 1448 1445 1439 1435 1432 1425
1420 1424 1428 1431 1434 1435 1438 1442 1447 1451 1453 1456 1459 1462 1465 1467 1469 1471 1473 1473 1474 1475 1475 1475 1475 1474 1472 1469 1466 1463 1458 1457 1453 1449 1446 1443 1441 1438 1436 1433 1429 1425 1422
1420 1423 1425 1427 1430 1434 1437 1441 1444 1446 1450 1453 1456 1459 1462 1464 1465 1467 1468 1469 1470 1470 1470 1470 1469 1468 1466 1464 1461 1459 1454 1450 1446 1442 1438 1436 1434 1431 1427 1424 1422 1419 1414
1417 1420 1422 1426 1431 1434 1435 1437 1441 1444 1447 1450 1453 1456 1458 1460 1462 1463 1464 1465 1466 1466 1465 1464 1462 1462 1461 1459 1456 1453 1450 1446 1442 1437 1433 1429 1426 1423 1419 1415 1412 1409 1407
1413 1417 1420 1425 1428 1431 1434 1436 1439 1443 1445 1447 1450 1453 1455 1456 1458 1460 1461 1461 1461 1461 1460 1458 1457 1456 1454 1453 1451 1448 1445 1441 1437 1432 1428 1424 1421 1416 1412 1408 1403 1400 1397
1413 1417 1421 1426 1428 1430 1434 1438 1441 1443 1445 1448 1449 1450 1453 1455 1455 1456 1458 1458 1457 1457 1456 1454 1452 1450 1448 1447 1445 1443 1440 1436 1432 1428 1425 1420 1416 1411 1407 1404 1398 1395 1391
1413 1416 1420 1424 1428 1431 1435 1439 1443 1446 1448 1449 1450 1452 1453 1454 1454 1454 1454 1453 1453 1453 1452 1449 1447 1445 1443 1441 1439 1436 1434 1431 1427 1423 1420 1415 1411 1406 1403 1400 1396 1394 1391
1413 1416 1420 1424 1428 1432 1435 1438 1441 1445 1447 1449 1450 1451 1451 1451 1450 1450 1450 1449 1448 1447 1446 1444 1441 1439 1436 1434 1432 1429 1427 1424 1420 1418 1415 1411 1405 1401 1398 1395 1393 1391 1390
1412 1415 1419 1424 1428 1432 1435 1438 1441 1443 1445 1447 1448 1448 1448 1448 1447 1447 1446 1444 1442 1442 1440 1439 1436 1433 1431 1429 1427 1424 1421 1418 1415 1412 1409 1405 1401 1398 1394 1391 1388 1386 1384
1409 1414 1418 1422 1426 1431 1434 1437 1440 1442 1444 1445 1446 1446 1444 1444 1443 1442 1440 1439 1439 1437 1436 1434 1431 1429 1427 1424 1422 1419 1415 1411 1409 1407 1404 1401 1397 1394 1391 1388 1385 1382 1380
1408 1412 1416 1421 1427 1431 1434 1436 1438 1437 1437 1439 1440 1440 1440 1440 1440 1438 1436 1434 1433 1432 1430 1429 1427 1424 1421 1419 1416 1413 1409 1406 1403 1401 1398 1395 1392 1387 1385 1383 1380 1378 1375
1410 1414 1417 1420 1424 1427 1428 1430 1433 1434 1434 1434 1434 1435 1435 1435 1434 1434 1433 1431 1430 1428 1426 1424 1422 1419 1416 1413 1411 1406 1402 1400 1398 1395 1392 1390 1388 1384 1380 1378 1375 1372 1370
1412 1416 1419 1422 1423 1424 1425 1427 1428 1429 1431 1431 1431 1432 1432 1430 1429 1429 1428 1426 1425 1423 1421 1418 1415 1413 1410 1408 1403 1399 1397 1394 1391 1389 1385 1381 1380 1378 1375 1373 1371 1368 1365
1415 1418 1419 1420 1422 1425 1425 1425 1425 1425 1426 1426 1426 1426 1426 1425 1424 1423 1422 1420 1419 1417 1414 1412 1410 1407 1405 1401 1396 1393 1391 1388 1386 1382 1379 1378 1375 1372 1370 1368 1366 1363 1361
1417 1418 1419 1420 1421 1423 1423 1423 1422 1423 1423 1423 1423 1422 1421 1419 1418 1417 1416 1414 1413 1410 1409 1407 1403 1401 1398 1394 1391 1388 1384 1381 1379 1378 1374 1371 1369 1366 1364 1362 1361 1359 1357
1418 1418 1419 1420 1421 1421 1421 1421 1421 1421 1421 1419 1419 1418 1416 1415 1414 1412 1410 1408 1406 1404 1402 1400 1397 1393 1390 1388 1385 1383 1380 1378 1374 1372 1370 1366 1363 1361 1359 1357 1355 1354 1352
1418 1418 1419 1419 1419 1419 1419 1419 1418 1418 1417 1416 1415 1413 1412 1410 1408 1406 1404 1402 1399 1397 1395 1392 1389 1386 1383 1381 1379 1376 1374 1372 1369 1367 1364 1361 1358 1356 1353 1351 1349 1348 1347
1418 1418 1418 1418 1418 1417 1417 1416 1415 1414 1412 1411 1410 1408 1406 1405 1402 1400 1398 1396 1393 1390 1387 1384 1381 1379 1376 1374 1372 1370 1368 1365 1363 1361 1358 1355 1353 1350 1348 1346 1344 1343 1341
Wind_Speed
50 48 47 44 42 42 41 46 36 34 24 27 33 32 34 25 20 20 22 20 22 22 22 21 21 20 16 15 17 17 19 22 30 33 33 32 34 33 34 35 37 38 40
39 37 39 39 39 41 44 34 27 24 37 35 32 35 31 22 23 22 23 23 20 23 24 20 18 15 16 16 18 18 19 22 28 34 34 36 37 36 36 37 37 38 40
38 37 37 38 39 36 39 39 38 28 35 35 34 27 27 24 23 23 22 19 20 22 19 16 14 14 13 16 17 18 19 21 26 32 36 35 37 36 38 39 41 39 41
32 31 35 36 40 44 47 44 38 34 29 26 27 24 25 23 23 24 23 20 20 19 16 13 10 11 14 12 14 16 19 24 28 32 36 39 39 39 37 37 40 39 40
37 37 35 39 36 44 47 41 34 26 27 26 26 25 24 23 23 22 21 19 18 16 13 11 11 15 16 17 18 21 24 28 30 34 38 41 43 43 42 42 40 39 43
41 36 35 33 29 36 32 34 33 28 27 25 25 23 23 21 20 18 17 17 17 16 17 17 17 16 18 20 22 24 26 30 34 37 40 43 45 43 42 41 38 38 39
37 34 33 33 34 32 30 29 28 27 25 24 22 20 20 20 19 20 20 18 18 18 17 15 15 17 19 21 24 26 27 29 30 32 35 36 38 35 35 38 37 35 36
27 27 31 31 31 31 29 28 26 24 23 22 22 22 22 22 21 21 20 18 16 15 13 14 16 18 21 22 23 24 25 25 26 28 28 31 30 29 29 33 35 38 40
27 29 30 31 31 29 27 26 25 26 25 25 24 24 22 21 21 20 18 15 13 12 14 16 16 17 19 21 23 24 26 26 26 27 28 28 26 26 27 26 27 28 32
29 28 29 29 28 27 28 27 26 26 26 24 23 21 19 19 20 18 15 13 12 13 14 15 15 16 18 19 21 24 26 28 31 32 31 31 28 26 24 21 24 29 30
26 25 27 28 27 26 25 25 26 26 23 22 20 19 19 17 16 15 15 14 13 13 13 12 13 15 17 19 20 22 25 27 30 32 32 31 27 26 26 20 23 26 28
24 26 26 26 26 22 21 23 22 22 22 21 22 23 21 18 17 17 17 15 13 12 11 12 13 15 16 18 19 22 25 26 28 29 30 29 28 26 25 21 28 32 27
25 26 26 25 23 21 21 23 24 22 21 22 22 21 20 20 17 16 15 13 11 11 13 13 14 15 17 18 20 22 24 24 25 26 28 28 26 24 26 27 28 23 22
25 25 24 23 22 21 21 20 20 22 23 22 22 21 21 18 16 14 13 13 13 14 14 14 14 15 17 19 20 21 22 23 23 24 25 26 26 23 24 22 22 24 16
24 24 24 23 22 24 23 22 22 22 20 19 18 16 15 15 14 13 14 15 15 15 15 15 15 17 18 20 22 23 23 23 22 22 23 24 24 24 21 19 16 16 12
25 25 25 26 26 25 24 23 20 16 15 14 14 14 15 16 16 15 15 15 15 16 16 16 17 19 20 22 23 25 25 24 23 22 22 22 23 23 23 19 16 12 16
25 26 25 24 24 22 20 16 15 13 15 14 14 15 16 16 14 14 15 15 15 16 16 17 18 19 21 22 24 25 25 25 24 23 22 22 22 21 21 21 19 15 12
27 26 25 22 20 17 12 10 10 9 9 10 10 12 12 13 13 13 13 14 15 17 18 18 18 20 21 23 24 25 26 27 25 24 23 21 21 21 22 21 20 18 17
27 24 21 17 14 11 9 7 9 15 12 11 12 13 16 17 18 20 20 20 20 19 18 19 20 22 23 24 25 26 26 26 25 25 23 21 20 20 21 19 20 18 15
20 16 14 13 13 13 16 16 13 14 16 13 12 14 16 18 19 19 21 21 18 18 20 21 23 23 24 24 25 24 25 25 25 23 22 21 20 20 20 19 19 21 18
14 14 13 15 16 14 12 14 13 10 10 12 14 15 17 18 19 20 20 19 19 20 22 23 24 25 25 24 23 23 24 23 22 23 22 20 20 20 19 18 20 20 19
11 11 9 9 8 8 8 8 9 10 12 13 14 15 16 18 19 21 21 21 21 21 23 25 25 25 25 23 23 24 23 24 23 22 21 21 21 21 20 20 19 18 17
7 6 5 4 4 5 6 7 8 9 11 12 14 16 18 19 19 19 20 20 21 23 24 25 26 27 22 21 21 21 24 23 21 21 21 22 22 22 22 21 19 18 17
2 2 1 3 4 6 8 8 9 11 13 13 13 15 17 18 18 20 21 22 24 26 26 27 27 25 22 21 20 21 21 21 20 20 20 21 24 23 23 22 20 19 17
4 4 4 5 6 7 8 9 10 11 13 15 16 16 17 18 20 21 23 25 26 27 28 27 25 22 22 21 20 21 20 20 19 18 19 21 22 23 23 22 19 18 17
6 6 7 8 8 8 10 11 11 13 15 16 17 17 18 20 22 23 24 26 27 26 25 24 22 21 20 19 19 19 18 18 17 17 19 22 23 23 22 20 18 19 18
Wind_Direction
223 224 224 228 233 241 246 250 252 228 244 236 250 249 253 228 236 239 235 253 250 242 232 231 237 241 243 251 260 259 261 267 275 284 290 291 291 293 289 285 285 286 284
227 232 234 235 238 244 247 263 274 248 239 241 252 246 249 231 239 231 241 246 237 232 229 229 238 238 245 254 257 262 269 274 281 288 290 289 289 290 288 286 284 283 283
226 233 233 233 235 243 249 241 243 247 236 244 250 233 219 232 233 236 234 234 237 227 231 231 230 243 258 267 271 268 267 275 276 281 287 289 291 292 292 290 287 285 282
233 233 229 233 236 238 241 239 242 243 235 227 216 218 226 229 233 229 219 224 220 221 219 219 231 252 268 259 257 258 260 265 272 278 282 286 288 290 291 292 290 289 287
227 235 234 240 230 233 233 234 233 212 212 214 219 221 224 227 222 212 215 209 210 202 207 224 244 252 249 256 263 269 274 277 280 283 286 288 290 292 294 296 292 290 284
222 231 227 232 228 218 210 203 199 200 209 216 218 221 215 208 203 201 198 194 197 209 221 234 247 243 253 264 272 275 279 284 286 289 291 293 295 298 297 295 295 293 289
218 220 221 201 196 193 192 194 198 207 211 208 204 198 187 188 192 187 188 203 211 224 231 236 246 256 264 269 273 276 279 283 288 293 296 298 300 305 305 302 297 289 285
206 203 194 194 192 185 189 195 199 200 196 193 189 187 191 186 193 199 205 210 214 224 235 248 260 270 276 280 283 287 290 296 297 296 297 302 303 306 304 300 295 292 292
197 194 194 198 195 193 196 195 190 186 185 184 185 189 192 196 196 198 203 208 220 238 257 268 272 273 277 283 294 302 304 308 311 310 306 305 303 301 300 303 297 297 292
204 203 210 201 208 207 198 189 184 183 184 186 186 190 193 199 193 201 209 224 241 255 260 264 269 279 291 296 303 308 312 315 318 319 319 316 316 306 308 298 305 307 295
215 212 209 205 205 195 183 183 183 185 186 185 188 186 188 198 203 215 232 244 254 251 256 269 283 290 295 302 307 311 314 317 319 320 319 318 316 316 313 308 305 303 293
206 199 198 192 185 188 193 184 187 188 189 189 189 185 193 209 222 235 249 257 255 261 273 283 290 294 297 302 307 309 312 315 314 317 320 321 318 315 317 308 306 302 287
203 197 191 187 192 195 191 190 191 196 200 198 200 206 211 219 229 243 255 266 277 284 287 290 292 295 298 301 306 310 313 314 316 318 321 321 318 310 317 318 315 302 284
196 192 192 190 194 196 192 199 203 203 204 208 211 215 220 225 233 245 265 278 283 284 287 289 291 295 302 308 312 313 316 318 320 319 318 319 319 312 314 321 324 323 298
198 196 193 198 198 190 192 191 199 204 218 229 229 230 232 237 248 260 267 274 278 281 290 294 295 299 307 311 313 317 320 322 322 318 315 317 319 318 310 319 325 317 299
199 195 195 193 192 195 198 195 194 206 215 222 227 234 239 245 251 256 267 276 282 291 296 295 298 304 309 312 314 318 321 323 323 322 317 317 318 319 313 312 313 310 310
207 196 190 193 197 201 200 206 216 216 218 218 226 233 241 251 262 264 269 272 284 290 291 296 299 302 307 311 315 316 317 321 322 319 316 316 315 314 315 313 311 306 294
193 191 189 186 186 186 191 205 215 221 237 246 253 258 269 273 275 278 282 292 297 293 295 298 301 303 306 311 311 311 313 316 317 315 315 313 312 311 318 315 315 311 296
182 173 174 175 180 194 211 252 257 243 235 262 273 275 283 291 295 293 297 304 303 294 295 297 300 302 305 307 306 308 310 312 312 312 311 307 307 308 311 316 311 312 305
159 168 181 176 177 198 219 223 231 252 258 261 266 271 278 282 282 287 295 299 294 293 296 300 301 303 305 306 307 308 308 310 311 311 311 311 309 307 308 313 313 312 310
188 182 189 201 212 221 227 237 239 247 258 265 268 272 274 274 280 288 293 294 292 294 298 301 302 304 306 307 306 306 308 310 309 311 311 309 307 307 307 307 312 310 309
177 187 194 199 211 226 240 250 255 261 267 273 277 276 276 280 286 293 295 292 291 295 299 301 302 304 307 305 305 307 308 310 310 308 309 310 309 309 309 307 308 310 307
163 178 189 209 239 260 275 284 288 290 286 281 278 278 281 287 290 288 289 291 293 295 297 298 300 304 302 300 300 302 304 306 307 308 310 310 311 313 311 306 305 308 309
112 97 19 330 316 316 318 314 298 291 293 295 291 291 293 293 292 293 294 294 295 296 296 298 301 301 300 300 299 302 300 299 301 303 306 309 312 313 309 303 300 303 305
45 26 2 338 324 319 313 308 306 305 302 300 300 299 296 295 296 297 296 296 297 296 296 296 297 297 299 299 299 300 297 294 292 297 299 302 307 313 309 302 298 298 300
18 4 351 341 334 326 320 316 312 308 307 307 305 300 301 306 305 304 305 305 304 300 296 295 298 299 297 295 296 298 295 294 295 297 295 294 299 306 308 304 298 295 297